Time,TemperatureF,DewpointF,PressureIn,WindDirection,WindDirectionDegrees,WindSpeedMPH,WindSpeedGustMPH,Humidity,HourlyPrecipIn,Conditions,Clouds,dailyrainin,SolarRadiationWatts/m^2,SoftwareType,DateUTC
2013-02-09 00:02:00,47.5,42.9,29.75,SSW,211,2.0,2.0,84,0.06,,,0.00,0,Wunderground v.1.15,2013-02-08 22:02:00,
2013-02-09 00:12:00,47.3,43.0,29.75,SSW,208,1.0,4.0,85,0.07,,,0.01,0,Wunderground v.1.15,2013-02-08 22:12:00,
2013-02-09 00:22:00,47.1,42.8,29.75,SSW,210,2.0,2.0,85,0.05,,,0.01,0,Wunderground v.1.15,2013-02-08 22:22:00,
2013-02-09 00:32:00,46.8,42.5,29.75,SSE,165,1.0,3.0,85,0.00,,,0.01,0,Wunderground v.1.15,2013-02-08 22:32:00,
2013-02-09 00:42:00,46.6,42.6,29.75,SW,221,3.0,3.0,86,0.00,,,0.02,0,Wunderground v.1.15,2013-02-08 22:42:00,
2013-02-09 00:52:00,46.4,42.4,29.75,SSW,211,2.0,4.0,86,0.00,,,0.02,0,Wunderground v.1.15,2013-02-08 22:52:00,
2013-02-09 01:02:00,46.4,42.4,29.75,SSW,196,2.0,2.0,86,0.00,,,0.02,0,Wunderground v.1.15,2013-02-08 23:02:00,
2013-02-09 01:12:00,46.6,42.3,29.76,SSW,193,3.0,3.0,85,0.00,,,0.02,0,Wunderground v.1.15,2013-02-08 23:12:00,
2013-02-09 01:22:00,46.7,42.4,29.76,WSW,254,3.0,3.0,85,0.00,,,0.02,0,Wunderground v.1.15,2013-02-08 23:22:00,
2013-02-09 01:32:00,46.8,42.5,29.76,SW,214,3.0,6.0,85,0.00,,,0.02,0,Wunderground v.1.15,2013-02-08 23:32:00,
2013-02-09 01:42:00,46.8,42.2,29.76,SSW,196,4.0,6.0,84,0.00,,,0.02,0,Wunderground v.1.15,2013-02-08 23:42:00,
2013-02-09 01:52:00,47.0,42.1,29.77,SW,224,4.0,5.0,83,0.00,,,0.02,0,Wunderground v.1.15,2013-02-08 23:52:00,
2013-02-09 02:02:00,47.0,42.4,29.77,WSW,239,4.0,4.0,84,0.00,,,0.02,0,Wunderground v.1.15,2013-02-09 00:02:00,
2013-02-09 02:12:00,47.0,42.4,29.77,SW,214,4.0,4.0,84,0.00,,,0.02,0,Wunderground v.1.15,2013-02-09 00:12:00,
2013-02-09 02:22:00,47.0,42.1,29.78,South,179,3.0,4.0,83,0.00,,,0.02,0,Wunderground v.1.15,2013-02-09 00:22:00,
2013-02-09 02:32:00,47.2,42.0,29.78,SW,219,4.0,4.0,82,0.00,,,0.02,0,Wunderground v.1.15,2013-02-09 00:32:00,
2013-02-09 02:42:00,47.4,41.9,29.78,SW,233,5.0,9.0,81,0.00,,,0.02,0,Wunderground v.1.15,2013-02-09 00:42:00,
2013-02-09 02:52:00,47.7,41.8,29.78,SW,234,6.0,8.0,80,0.00,,,0.02,0,Wunderground v.1.15,2013-02-09 00:52:00,
2013-02-09 03:02:00,47.7,41.8,29.79,SW,229,6.0,6.0,80,0.00,,,0.02,0,Wunderground v.1.15,2013-02-09 01:02:00,
2013-02-09 03:12:00,47.3,42.1,29.79,South,184,6.0,8.0,82,0.00,,,0.02,0,Wunderground v.1.15,2013-02-09 01:12:00,
2013-02-09 03:22:00,47.2,42.3,29.80,SW,219,6.0,7.0,83,0.00,,,0.02,0,Wunderground v.1.15,2013-02-09 01:22:00,
2013-02-09 03:32:00,47.3,41.8,29.80,WSW,242,7.0,7.0,81,0.00,,,0.02,0,Wunderground v.1.15,2013-02-09 01:32:00,
2013-02-09 03:42:00,47.0,42.1,29.80,SSW,211,7.0,7.0,83,0.00,,,0.02,0,Wunderground v.1.15,2013-02-09 01:42:00,
2013-02-09 03:52:00,46.4,41.8,29.80,WSW,244,7.0,7.0,84,0.10,,,0.03,0,Wunderground v.1.15,2013-02-09 01:52:00,
2013-02-09 04:02:00,46.4,41.8,29.81,South,174,7.0,7.0,84,0.04,,,0.04,0,Wunderground v.1.15,2013-02-09 02:02:00,
2013-02-09 04:12:00,46.6,41.4,29.81,SSE,167,7.0,7.0,82,0.10,,,0.05,0,Wunderground v.1.15,2013-02-09 02:12:00,
2013-02-09 04:22:00,46.2,41.6,29.82,SW,220,6.0,7.0,84,0.08,,,0.06,0,Wunderground v.1.15,2013-02-09 02:22:00,
2013-02-09 04:32:00,45.6,41.7,29.82,SSW,205,5.0,7.0,86,0.11,,,0.07,0,Wunderground v.1.15,2013-02-09 02:32:00,
2013-02-09 04:42:00,45.3,41.7,29.82,SSW,209,4.0,4.0,87,0.11,,,0.09,0,Wunderground v.1.15,2013-02-09 02:42:00,
2013-02-09 04:52:00,45.2,41.9,29.82,South,190,4.0,4.0,88,0.04,,,0.09,0,Wunderground v.1.15,2013-02-09 02:52:00,
2013-02-09 05:02:00,45.2,42.2,29.82,SSW,201,4.0,4.0,89,0.00,,,0.09,0,Wunderground v.1.15,2013-02-09 03:02:00,
2013-02-09 05:12:00,45.1,42.1,29.82,SSW,209,4.0,4.0,89,0.00,,,0.09,0,Wunderground v.1.15,2013-02-09 03:12:00,
2013-02-09 05:22:00,45.4,42.1,29.82,South,174,5.0,5.0,88,0.00,,,0.09,0,Wunderground v.1.15,2013-02-09 03:22:00,
2013-02-09 05:32:00,45.5,41.9,29.83,SSW,197,5.0,5.0,87,0.00,,,0.09,0,Wunderground v.1.15,2013-02-09 03:32:00,
2013-02-09 05:42:00,45.8,41.9,29.83,SW,232,6.0,6.0,86,0.00,,,0.09,0,Wunderground v.1.15,2013-02-09 03:42:00,
2013-02-09 05:52:00,46.3,41.7,29.84,ESE,121,6.0,6.0,84,0.00,,,0.09,0,Wunderground v.1.15,2013-02-09 03:52:00,
2013-02-09 06:12:00,46.2,41.9,29.84,SSW,211,6.0,9.0,85,0.00,,,0.09,0,Wunderground v.1.15,2013-02-09 04:12:00,
2013-02-09 06:22:00,46.4,41.8,29.84,SSW,211,7.0,16.0,84,0.00,,,0.09,0,Wunderground v.1.15,2013-02-09 04:22:00,
2013-02-09 06:32:00,46.2,41.9,29.85,SSW,208,8.0,8.0,85,0.00,,,0.09,0,Wunderground v.1.15,2013-02-09 04:32:00,
2013-02-09 06:42:00,45.9,41.9,29.85,SSE,163,6.0,8.0,86,0.00,,,0.09,0,Wunderground v.1.15,2013-02-09 04:42:00,
2013-02-09 06:52:00,45.5,41.9,29.85,SSW,210,5.0,6.0,87,0.00,,,0.09,0,Wunderground v.1.15,2013-02-09 04:52:00,
2013-02-09 07:02:00,45.4,41.8,29.86,SSW,194,5.0,5.0,87,0.00,,,0.09,0,Wunderground v.1.15,2013-02-09 05:02:00,
2013-02-09 07:12:00,45.5,41.9,29.86,WSW,240,3.0,5.0,87,0.00,,,0.09,0,Wunderground v.1.15,2013-02-09 05:12:00,
2013-02-09 07:22:00,45.6,42.0,29.87,South,188,3.0,3.0,87,0.00,,,0.09,12,Wunderground v.1.15,2013-02-09 05:22:00,
2013-02-09 07:32:00,45.7,41.8,29.87,SSW,195,4.0,5.0,86,0.00,,,0.09,25,Wunderground v.1.15,2013-02-09 05:32:00,
2013-02-09 07:42:00,45.8,41.9,29.88,SW,214,4.0,4.0,86,0.00,,,0.09,28,Wunderground v.1.15,2013-02-09 05:42:00,
2013-02-09 07:52:00,46.1,41.8,29.88,SSW,212,4.0,4.0,85,0.00,,,0.09,32,Wunderground v.1.15,2013-02-09 05:52:00,
2013-02-09 08:02:00,46.8,42.2,29.88,SSE,163,4.0,4.0,84,0.00,,,0.09,98,Wunderground v.1.15,2013-02-09 06:02:00,
2013-02-09 08:22:00,46.6,42.0,29.89,South,183,5.0,8.0,84,0.00,,,0.09,39,Wunderground v.1.15,2013-02-09 06:22:00,
2013-02-09 08:32:00,46.7,42.1,29.89,SW,215,5.0,9.0,84,0.00,,,0.09,70,Wunderground v.1.15,2013-02-09 06:32:00,
2013-02-09 08:42:00,47.1,42.5,29.89,SW,214,4.0,10.0,84,0.00,,,0.09,114,Wunderground v.1.15,2013-02-09 06:42:00,
2013-02-09 08:52:00,47.2,42.3,29.89,SSE,161,5.0,5.0,83,0.00,,,0.09,100,Wunderground v.1.15,2013-02-09 06:52:00,
2013-02-09 09:02:00,47.7,42.5,29.90,WSW,257,3.0,3.0,82,0.00,,,0.09,111,Wunderground v.1.15,2013-02-09 07:02:00,
2013-02-09 09:12:00,47.8,41.9,29.90,SSW,213,5.0,5.0,80,0.00,,,0.09,132,Wunderground v.1.15,2013-02-09 07:12:00,
2013-02-09 09:42:00,47.9,42.0,29.91,SW,229,4.0,7.0,80,0.00,,,0.09,98,Wunderground v.1.15,2013-02-09 07:42:00,
2013-02-09 09:52:00,48.0,42.1,29.90,WSW,247,4.0,4.0,80,0.00,,,0.09,105,Wunderground v.1.15,2013-02-09 07:52:00,
2013-02-09 10:02:00,47.9,42.3,29.90,SSW,210,4.0,4.0,81,0.00,,,0.09,120,Wunderground v.1.15,2013-02-09 08:02:00,
2013-02-09 10:12:00,48.0,42.4,29.90,WSW,240,4.0,4.0,81,0.00,,,0.09,200,Wunderground v.1.15,2013-02-09 08:12:00,
2013-02-09 10:22:00,48.5,42.9,29.91,SSW,204,2.0,2.0,81,0.00,,,0.09,158,Wunderground v.1.15,2013-02-09 08:22:00,
2013-02-09 10:32:00,48.9,43.3,29.91,South,184,2.0,2.0,81,0.00,,,0.09,146,Wunderground v.1.15,2013-02-09 08:32:00,
2013-02-09 10:42:00,49.1,42.9,29.91,SW,217,2.0,2.0,79,0.00,,,0.09,199,Wunderground v.1.15,2013-02-09 08:42:00,
2013-02-09 10:52:00,49.5,42.6,29.91,SSE,158,3.0,3.0,77,0.00,,,0.09,295,Wunderground v.1.15,2013-02-09 08:52:00,
2013-02-09 11:02:00,50.1,41.8,29.91,South,187,4.0,4.0,73,0.00,,,0.09,504,Wunderground v.1.15,2013-02-09 09:02:00,
2013-02-09 11:12:00,50.3,41.6,29.91,SW,220,5.0,5.0,72,0.00,,,0.09,155,Wunderground v.1.15,2013-02-09 09:12:00,
2013-02-09 11:22:00,50.5,41.8,29.91,SW,233,4.0,4.0,72,0.00,,,0.09,221,Wunderground v.1.15,2013-02-09 09:22:00,
2013-02-09 11:32:00,50.8,41.7,29.91,WSW,239,4.0,7.0,71,0.00,,,0.09,183,Wunderground v.1.15,2013-02-09 09:32:00,
2013-02-09 11:42:00,50.4,42.4,29.91,SW,218,5.0,5.0,74,0.00,,,0.09,225,Wunderground v.1.15,2013-02-09 09:42:00,
2013-02-09 11:52:00,50.2,42.2,29.91,SSE,151,4.0,4.0,74,0.00,,,0.09,213,Wunderground v.1.15,2013-02-09 09:52:00,
2013-02-09 12:02:00,50.6,41.9,29.91,SW,221,4.0,4.0,72,0.00,,,0.09,165,Wunderground v.1.15,2013-02-09 10:02:00,
2013-02-09 12:12:00,51.0,41.6,29.90,WSW,242,4.0,4.0,70,0.00,,,0.09,199,Wunderground v.1.15,2013-02-09 10:12:00,
2013-02-09 12:22:00,51.7,41.5,29.90,SSE,161,4.0,4.0,68,0.00,,,0.09,204,Wunderground v.1.15,2013-02-09 10:22:00,
2013-02-09 12:32:00,52.2,42.3,29.90,SW,220,5.0,5.0,69,0.00,,,0.09,221,Wunderground v.1.15,2013-02-09 10:32:00,
2013-02-09 12:42:00,52.0,42.1,29.90,SSW,212,4.0,4.0,69,0.00,,,0.09,246,Wunderground v.1.15,2013-02-09 10:42:00,
2013-02-09 12:52:00,51.7,41.5,29.90,WSW,243,5.0,9.0,68,0.00,,,0.09,295,Wunderground v.1.15,2013-02-09 10:52:00,
2013-02-09 13:02:00,52.9,42.2,29.90,SSW,211,4.0,7.0,67,0.00,,,0.09,633,Wunderground v.1.15,2013-02-09 11:02:00,
2013-02-09 13:12:00,53.0,41.9,29.90,SW,217,5.0,5.0,66,0.00,,,0.09,431,Wunderground v.1.15,2013-02-09 11:12:00,
2013-02-09 13:22:00,53.9,41.2,29.90,South,177,4.0,4.0,62,0.00,,,0.09,295,Wunderground v.1.15,2013-02-09 11:22:00,
2013-02-09 13:32:00,53.8,41.5,29.90,West,261,5.0,5.0,63,0.00,,,0.09,257,Wunderground v.1.15,2013-02-09 11:32:00,
2013-02-09 13:42:00,53.6,41.3,29.90,SSW,194,4.0,6.0,63,0.00,,,0.09,248,Wunderground v.1.15,2013-02-09 11:42:00,
2013-02-09 13:52:00,53.4,41.1,29.89,SSW,209,6.0,7.0,63,0.00,,,0.09,308,Wunderground v.1.15,2013-02-09 11:52:00,
2013-02-09 14:02:00,53.5,41.2,29.90,WNW,288,6.0,6.0,63,0.00,,,0.09,299,Wunderground v.1.15,2013-02-09 12:02:00,
2013-02-09 14:12:00,53.8,41.5,29.90,SSW,202,4.0,4.0,63,0.00,,,0.09,264,Wunderground v.1.15,2013-02-09 12:12:00,
2013-02-09 14:22:00,53.3,41.0,29.90,SW,235,5.0,5.0,63,0.00,,,0.09,149,Wunderground v.1.15,2013-02-09 12:22:00,
2013-02-09 14:32:00,52.7,41.3,29.90,SW,228,5.0,5.0,65,0.00,,,0.09,221,Wunderground v.1.15,2013-02-09 12:32:00,
2013-02-09 14:42:00,52.6,41.9,29.89,South,189,4.0,4.0,67,0.00,,,0.09,197,Wunderground v.1.15,2013-02-09 12:42:00,
2013-02-09 14:52:00,52.8,41.7,29.89,SE,126,4.0,4.0,66,0.00,,,0.09,146,Wunderground v.1.15,2013-02-09 12:52:00,
2013-02-09 15:02:00,52.4,41.8,29.90,SSW,192,4.0,4.0,67,0.00,,,0.09,118,Wunderground v.1.15,2013-02-09 13:02:00,
2013-02-09 15:12:00,52.0,42.1,29.90,SSE,167,3.0,3.0,69,0.00,,,0.09,72,Wunderground v.1.15,2013-02-09 13:12:00,
2013-02-09 15:22:00,51.6,42.1,29.90,South,190,2.0,2.0,70,0.00,,,0.09,42,Wunderground v.1.15,2013-02-09 13:22:00,
2013-02-09 15:32:00,51.3,41.8,29.91,SSW,196,3.0,3.0,70,0.00,,,0.09,40,Wunderground v.1.15,2013-02-09 13:32:00,
2013-02-09 15:42:00,50.6,42.3,29.91,SSW,206,3.0,7.0,73,0.00,,,0.09,46,Wunderground v.1.15,2013-02-09 13:42:00,
2013-02-09 15:52:00,50.2,42.6,29.91,South,174,2.0,6.0,75,0.00,,,0.09,56,Wunderground v.1.15,2013-02-09 13:52:00,
2013-02-09 16:02:00,49.8,42.9,29.92,SSW,198,3.0,3.0,77,0.00,,,0.09,32,Wunderground v.1.15,2013-02-09 14:02:00,
2013-02-09 16:12:00,49.7,42.8,29.92,SW,235,3.0,3.0,77,0.00,,,0.09,23,Wunderground v.1.15,2013-02-09 14:12:00,
2013-02-09 16:22:00,49.6,43.4,29.92,SSW,196,2.0,2.0,79,0.00,,,0.09,18,Wunderground v.1.15,2013-02-09 14:22:00,
2013-02-09 16:32:00,49.5,43.3,29.92,SSW,207,1.0,2.0,79,0.00,,,0.09,9,Wunderground v.1.15,2013-02-09 14:32:00,
2013-02-09 16:42:00,49.0,43.1,29.92,SSW,212,3.0,4.0,80,0.00,,,0.10,18,Wunderground v.1.15,2013-02-09 14:42:00,
2013-02-09 16:52:00,48.8,43.5,29.92,South,178,2.0,2.0,82,0.00,,,0.10,12,Wunderground v.1.15,2013-02-09 14:52:00,
2013-02-09 17:02:00,48.9,44.0,29.91,SSW,202,1.0,1.0,83,0.00,,,0.10,9,Wunderground v.1.15,2013-02-09 15:02:00,
2013-02-09 17:12:00,48.6,43.7,29.92,South,180,2.0,2.0,83,0.00,,,0.11,7,Wunderground v.1.15,2013-02-09 15:12:00,
2013-02-09 17:22:00,48.2,43.3,29.92,SSW,192,2.0,2.0,83,0.00,,,0.11,0,Wunderground v.1.15,2013-02-09 15:22:00,
2013-02-09 17:32:00,48.3,43.4,29.93,SW,229,2.0,2.0,83,0.00,,,0.12,0,Wunderground v.1.15,2013-02-09 15:32:00,
2013-02-09 17:42:00,48.4,43.8,29.92,SW,215,1.0,1.0,84,0.00,,,0.12,0,Wunderground v.1.15,2013-02-09 15:42:00,
2013-02-09 17:52:00,48.3,44.0,29.94,SSW,213,2.0,4.0,85,0.00,,,0.13,0,Wunderground v.1.15,2013-02-09 15:52:00,
2013-02-09 18:02:00,48.1,43.8,29.93,SSE,165,1.0,2.0,85,0.06,,,0.13,0,Wunderground v.1.15,2013-02-09 16:02:00,
2013-02-09 18:12:00,47.9,43.9,29.93,ESE,105,1.0,2.0,86,0.09,,,0.15,0,Wunderground v.1.15,2013-02-09 16:12:00,
2013-02-09 18:22:00,47.7,43.7,29.93,SE,143,2.0,2.0,86,0.05,,,0.15,0,Wunderground v.1.15,2013-02-09 16:22:00,
2013-02-09 18:32:00,47.8,44.1,29.94,SSW,213,1.0,1.0,87,0.00,,,0.15,0,Wunderground v.1.15,2013-02-09 16:32:00,
2013-02-09 18:42:00,47.9,44.2,29.94,SW,217,1.0,2.0,87,0.00,,,0.15,0,Wunderground v.1.15,2013-02-09 16:42:00,
2013-02-09 18:52:00,48.1,44.1,29.94,WSW,249,2.0,3.0,86,0.00,,,0.15,0,Wunderground v.1.15,2013-02-09 16:52:00,
2013-02-09 19:02:00,48.2,44.2,29.93,WSW,250,3.0,3.0,86,0.00,,,0.15,0,Wunderground v.1.15,2013-02-09 17:02:00,
2013-02-09 19:12:00,48.3,44.3,29.93,WSW,251,1.0,1.0,86,0.00,,,0.15,0,Wunderground v.1.15,2013-02-09 17:12:00,
2013-02-09 19:22:00,48.3,44.3,29.94,SSE,153,2.0,3.0,86,0.00,,,0.15,0,Wunderground v.1.15,2013-02-09 17:22:00,
2013-02-09 19:32:00,48.2,44.2,29.93,South,178,1.0,1.0,86,0.00,,,0.15,0,Wunderground v.1.15,2013-02-09 17:32:00,
2013-02-09 19:42:00,47.9,44.2,29.93,South,184,0.0,2.0,87,0.00,,,0.15,0,Wunderground v.1.15,2013-02-09 17:42:00,
2013-02-09 19:52:00,48.0,44.3,29.94,SSW,209,1.0,2.0,87,0.00,,,0.16,0,Wunderground v.1.15,2013-02-09 17:52:00,
2013-02-09 20:02:00,47.8,44.1,29.94,South,171,2.0,3.0,87,0.00,,,0.16,0,Wunderground v.1.15,2013-02-09 18:02:00,
2013-02-09 20:12:00,47.6,43.9,29.94,South,171,2.0,2.0,87,0.00,,,0.16,0,Wunderground v.1.15,2013-02-09 18:12:00,
2013-02-09 20:22:00,47.5,44.1,29.94,South,174,1.0,1.0,88,0.00,,,0.16,0,Wunderground v.1.15,2013-02-09 18:22:00,
2013-02-09 20:32:00,47.6,44.5,29.94,South,174,0.0,0.0,89,0.00,,,0.16,0,Wunderground v.1.15,2013-02-09 18:32:00,
2013-02-09 20:42:00,47.7,44.6,29.93,South,174,0.0,0.0,89,0.00,,,0.16,0,Wunderground v.1.15,2013-02-09 18:42:00,
2013-02-09 20:52:00,47.7,44.6,29.93,East,88,2.0,2.0,89,0.00,,,0.16,0,Wunderground v.1.15,2013-02-09 18:52:00,
2013-02-09 21:02:00,47.9,44.5,29.93,East,86,1.0,1.0,88,0.00,,,0.17,0,Wunderground v.1.15,2013-02-09 19:02:00,
2013-02-09 21:12:00,47.9,44.8,29.93,East,81,0.0,0.0,89,0.00,,,0.17,0,Wunderground v.1.15,2013-02-09 19:12:00,
2013-02-09 21:22:00,48.0,44.9,29.93,NNE,13,1.0,2.0,89,0.00,,,0.17,0,Wunderground v.1.15,2013-02-09 19:22:00,
2013-02-09 21:32:00,48.1,44.7,29.94,NNW,345,2.0,2.0,88,0.00,,,0.17,0,Wunderground v.1.15,2013-02-09 19:32:00,
2013-02-09 21:42:00,48.1,44.7,29.94,NNW,345,1.0,1.0,88,0.00,,,0.17,0,Wunderground v.1.15,2013-02-09 19:42:00,
2013-02-09 21:52:00,48.1,44.4,29.94,NNW,345,1.0,1.0,87,0.00,,,0.17,0,Wunderground v.1.15,2013-02-09 19:52:00,
2013-02-09 22:02:00,48.4,44.7,29.94,North,5,2.0,3.0,87,0.00,,,0.17,0,Wunderground v.1.15,2013-02-09 20:02:00,
2013-02-09 22:12:00,48.6,44.9,29.93,NE,36,2.0,2.0,87,0.00,,,0.17,0,Wunderground v.1.15,2013-02-09 20:12:00,
2013-02-09 22:22:00,48.6,45.2,29.94,NNE,28,1.0,1.0,88,0.00,,,0.17,0,Wunderground v.1.15,2013-02-09 20:22:00,
2013-02-09 22:32:00,48.6,45.2,29.94,NE,53,1.0,3.0,88,0.00,,,0.17,0,Wunderground v.1.15,2013-02-09 20:32:00,
2013-02-09 22:52:00,48.0,44.6,29.94,NW,310,3.0,3.0,88,0.05,,,0.18,0,Wunderground v.1.15,2013-02-09 20:52:00,
2013-02-09 23:02:00,47.9,44.8,29.94,ENE,59,1.0,2.0,89,0.06,,,0.19,0,Wunderground v.1.15,2013-02-09 21:02:00,
2013-02-09 23:12:00,48.0,45.2,29.94,NE,40,2.0,3.0,90,0.06,,,0.20,0,Wunderground v.1.15,2013-02-09 21:12:00,
2013-02-09 23:22:00,48.0,45.2,29.94,NE,35,2.0,2.0,90,0.15,,,0.21,0,Wunderground v.1.15,2013-02-09 21:22:00,
2013-02-09 23:32:00,47.9,45.1,29.95,North,11,1.0,1.0,90,0.26,,,0.23,0,Wunderground v.1.15,2013-02-09 21:32:00,
2013-02-09 23:42:00,47.8,44.7,29.94,North,11,0.0,0.0,89,0.18,,,0.24,0,Wunderground v.1.15,2013-02-09 21:42:00,
2013-02-09 23:52:00,47.9,45.1,29.95,SW,235,1.0,5.0,90,0.05,,,0.24,0,Wunderground v.1.15,2013-02-09 21:52:00,